When you browse on this site, cookies collect data to enhance your experience and personalize the content and advertising you see.
Visit our Privacy Policy to learn more. By continuing to use the site, you agree to this use of cookies and data.
  • In Österreich
  • Länderverzeichnis
  • Für 7 Tage
  • Wassertemperatur
  • Satellitenkarten
  • Wetterkarte
  • News
  • Widgets
  • user-avatar
    Anmelden

    Stündliche Wetter Chechelnik

    Heute, 18 Juli, Donnerstag

    Zeit Temperatur Niederschläge Wind Luftdruck Luftfeuchtigkeit
    00:00 +13°C° 0 mm 3 m/S 737 mmHg 86%
    01:00 +12°C° 0 mm 3 m/S 737 mmHg 89%
    02:00 +12°C° 0 mm 3 m/S 737 mmHg 92%
    03:00 +11°C° 0 mm 3 m/S 737 mmHg 93%
    04:00 +11°C° 0 mm 3 m/S 737 mmHg 93%
    05:00 +11°C° 0 mm 3 m/S 738 mmHg 94%
    06:00 +13°C° 0 mm 3 m/S 738 mmHg 86%
    07:00 +16°C° 0 mm 3 m/S 738 mmHg 78%
    08:00 +18°C° 0 mm 3 m/S 738 mmHg 71%
    09:00 +19°C° 0 mm 4 m/S 738 mmHg 65%
    10:00 +20°C° 0 mm 4 m/S 739 mmHg 59%
    11:00 +21°C° 0 mm 4 m/S 739 mmHg 53%
    12:00 +22°C° 0 mm 4 m/S 739 mmHg 52%
    13:00 +22°C° 0 mm 4 m/S 739 mmHg 51%
    14:00 +23°C° 0 mm 4 m/S 739 mmHg 50%
    15:00 +23°C° 0 mm 4 m/S 739 mmHg 51%
    16:00 +22°C° 0 mm 4 m/S 739 mmHg 53%
    17:00 +22°C° 0 mm 4 m/S 739 mmHg 54%
    18:00 +21°C° 0 mm 3 m/S 739 mmHg 60%
    19:00 +19°C° 0 mm 3 m/S 739 mmHg 66%
    20:00 +17°C° 0 mm 2 m/S 739 mmHg 73%
    21:00 +17°C° 0 mm 2 m/S 740 mmHg 76%
    22:00 +16°C° 0 mm 2 m/S 740 mmHg 80%
    23:00 +15°C° 0 mm 1 m/S 740 mmHg 83%

    Morgen, 19 Juli, Freitag

    Zeit Temperatur Niederschläge Wind Luftdruck Luftfeuchtigkeit
    00:00 +15°C° 0 mm 1 m/S 741 mmHg 85%
    01:00 +15°C° 0 mm 1 m/S 741 mmHg 86%
    02:00 +15°C° 0 mm 1 m/S 741 mmHg 88%
    03:00 +15°C° 0 mm 1 m/S 741 mmHg 88%
    04:00 +14°C° 0 mm 1 m/S 741 mmHg 88%
    05:00 +14°C° 0 mm 1 m/S 741 mmHg 88%
    06:00 +16°C° 0 mm 1 m/S 741 mmHg 82%
    07:00 +18°C° 0 mm 2 m/S 742 mmHg 77%
    08:00 +19°C° 0 mm 2 m/S 742 mmHg 71%
    09:00 +21°C° 0 mm 2 m/S 742 mmHg 65%
    10:00 +23°C° 0 mm 2 m/S 742 mmHg 58%
    11:00 +24°C° 0 mm 2 m/S 743 mmHg 52%
    12:00 +25°C° 0 mm 2 m/S 743 mmHg 50%
    13:00 +25°C° 0 mm 2 m/S 742 mmHg 48%
    14:00 +26°C° 0 mm 2 m/S 742 mmHg 46%
    15:00 +26°C° 0 mm 2 m/S 742 mmHg 47%
    16:00 +26°C° 0 mm 2 m/S 742 mmHg 48%
    17:00 +26°C° 0 mm 2 m/S 742 mmHg 49%
    18:00 +24°C° 0 mm 1 m/S 742 mmHg 54%
    19:00 +22°C° 0 mm 1 m/S 742 mmHg 59%
    20:00 +19°C° 0 mm 0 m/S 742 mmHg 64%
    21:00 +20°C° 0 mm 1 m/S 743 mmHg 65%
    22:00 +20°C° 0 mm 1 m/S 743 mmHg 67%
    23:00 +19°C° 0 mm 1 m/S 743 mmHg 68%

    übermorgen, 20 Juli, Samstag

    Zeit Temperatur Niederschläge Wind Luftdruck Luftfeuchtigkeit
    00:00 +19°C° 0 mm 1 m/S 743 mmHg 72%
    01:00 +18°C° 0 mm 1 m/S 743 mmHg 76%
    02:00 +17°C° 0 mm 2 m/S 743 mmHg 80%
    03:00 +17°C° 0 mm 2 m/S 743 mmHg 82%
    04:00 +18°C° 0 mm 1 m/S 743 mmHg 84%
    05:00 +18°C° 0 mm 1 m/S 743 mmHg 86%
    06:00 +19°C° 0 mm 2 m/S 743 mmHg 80%
    07:00 +20°C° 0 mm 2 m/S 744 mmHg 74%
    08:00 +22°C° 0 mm 3 m/S 744 mmHg 69%
    09:00 +25°C° 0.3 mm 3 m/S 744 mmHg 64%
    10:00 +26°C° 0.3 mm 3 m/S 744 mmHg 59%
    11:00 +27°C° 0.3 mm 3 m/S 744 mmHg 54%
    12:00 +28°C° 0.5 mm 3 m/S 744 mmHg 51%
    13:00 +29°C° 0.5 mm 3 m/S 744 mmHg 48%
    14:00 +29°C° 0.5 mm 2 m/S 744 mmHg 45%
    15:00 +29°C° 0 mm 2 m/S 744 mmHg 47%
    16:00 +29°C° 0 mm 2 m/S 744 mmHg 48%
    17:00 +29°C° 0 mm 2 m/S 744 mmHg 49%
    18:00 +27°C° 0 mm 2 m/S 744 mmHg 57%
    19:00 +25°C° 0 mm 2 m/S 744 mmHg 64%
    20:00 +23°C° 0 mm 2 m/S 744 mmHg 71%
    21:00 +21°C° 0.1 mm 2 m/S 744 mmHg 76%
    22:00 +20°C° 0.1 mm 2 m/S 744 mmHg 81%
    23:00 +19°C° 0.1 mm 2 m/S 745 mmHg 86%

    21 Juli, Sonntag

    Zeit Temperatur Niederschläge Wind Luftdruck Luftfeuchtigkeit
    00:00 +18°C° 0 mm 2 m/S 744 mmHg 87%
    01:00 +18°C° 0 mm 2 m/S 744 mmHg 88%
    02:00 +18°C° 0 mm 2 m/S 744 mmHg 88%
    03:00 +18°C° 0 mm 2 m/S 744 mmHg 88%
    04:00 +18°C° 0 mm 2 m/S 744 mmHg 88%
    05:00 +17°C° 0 mm 2 m/S 744 mmHg 88%
    06:00 +19°C° 0 mm 2 m/S 744 mmHg 80%
    07:00 +21°C° 0 mm 2 m/S 745 mmHg 73%
    08:00 +24°C° 0 mm 2 m/S 745 mmHg 66%
    09:00 +25°C° 0 mm 2 m/S 745 mmHg 60%
    10:00 +27°C° 0 mm 2 m/S 745 mmHg 54%
    11:00 +28°C° 0 mm 2 m/S 745 mmHg 48%
    12:00 +29°C° 0 mm 2 m/S 745 mmHg 47%
    13:00 +29°C° 0 mm 2 m/S 745 mmHg 46%
    14:00 +30°C° 0 mm 2 m/S 744 mmHg 45%
    15:00 +29°C° 0 mm 1 m/S 744 mmHg 47%
    16:00 +29°C° 0 mm 1 m/S 744 mmHg 48%
    17:00 +29°C° 0 mm 1 m/S 744 mmHg 50%
    18:00 +28°C° 0 mm 1 m/S 744 mmHg 55%
    19:00 +26°C° 0 mm 1 m/S 744 mmHg 59%
    20:00 +24°C° 0 mm 2 m/S 744 mmHg 63%
    21:00 +24°C° 0 mm 2 m/S 744 mmHg 66%
    22:00 +23°C° 0 mm 2 m/S 744 mmHg 68%
    23:00 +21°C° 0 mm 2 m/S 744 mmHg 70%

    22 Juli, Montag

    Zeit Temperatur Niederschläge Wind Luftdruck Luftfeuchtigkeit
    00:00 +21°C° 0.1 mm 2 m/S 744 mmHg 72%
    01:00 +20°C° 0.1 mm 2 m/S 744 mmHg 73%
    02:00 +20°C° 0.1 mm 2 m/S 743 mmHg 75%
    03:00 +20°C° 0.1 mm 2 m/S 743 mmHg 76%
    04:00 +19°C° 0.1 mm 2 m/S 743 mmHg 76%
    05:00 +19°C° 0.1 mm 2 m/S 743 mmHg 77%
    06:00 +21°C° 0.2 mm 2 m/S 743 mmHg 73%
    07:00 +24°C° 0.2 mm 3 m/S 743 mmHg 69%
    08:00 +26°C° 0.2 mm 3 m/S 743 mmHg 65%
    09:00 +27°C° 0 mm 3 m/S 743 mmHg 61%
    10:00 +28°C° 0 mm 4 m/S 743 mmHg 57%
    11:00 +30°C° 0 mm 4 m/S 743 mmHg 53%
    12:00 +30°C° 0.1 mm 4 m/S 743 mmHg 52%
    13:00 +30°C° 0.1 mm 4 m/S 743 mmHg 51%
    14:00 +32°C° 0.1 mm 5 m/S 742 mmHg 50%
    15:00 +30°C° 0.2 mm 5 m/S 742 mmHg 52%
    16:00 +29°C° 0.2 mm 5 m/S 742 mmHg 54%
    17:00 +29°C° 0.2 mm 5 m/S 742 mmHg 56%
    18:00 +27°C° 0 mm 5 m/S 742 mmHg 64%
    19:00 +25°C° 0 mm 4 m/S 742 mmHg 71%
    20:00 +22°C° 0 mm 3 m/S 742 mmHg 79%
    21:00 +21°C° 0 mm 3 m/S 742 mmHg 81%
    22:00 +21°C° 0 mm 3 m/S 742 mmHg 84%
    23:00 +20°C° 0 mm 3 m/S 742 mmHg 86%

    23 Juli, Dienstag

    Zeit Temperatur Niederschläge Wind Luftdruck Luftfeuchtigkeit
    00:00 +20°C° 0 mm 3 m/S 742 mmHg 85%
    01:00 +20°C° 0 mm 4 m/S 742 mmHg 84%
    02:00 +20°C° 0 mm 4 m/S 742 mmHg 83%
    03:00 +19°C° 0 mm 4 m/S 741 mmHg 84%
    04:00 +19°C° 0 mm 3 m/S 741 mmHg 84%
    05:00 +19°C° 0 mm 3 m/S 741 mmHg 85%
    06:00 +20°C° 0 mm 3 m/S 741 mmHg 81%
    07:00 +21°C° 0 mm 4 m/S 741 mmHg 76%
    08:00 +22°C° 0 mm 4 m/S 741 mmHg 72%
    09:00 +23°C° 0.2 mm 4 m/S 741 mmHg 67%
    10:00 +25°C° 0.2 mm 4 m/S 741 mmHg 62%
    11:00 +26°C° 0.2 mm 4 m/S 741 mmHg 57%
    12:00 +26°C° 0.1 mm 4 m/S 741 mmHg 56%
    13:00 +26°C° 0.1 mm 5 m/S 740 mmHg 55%
    14:00 +27°C° 0.1 mm 5 m/S 740 mmHg 53%
    15:00 +26°C° 0.3 mm 5 m/S 740 mmHg 56%
    16:00 +26°C° 0.3 mm 5 m/S 740 mmHg 59%
    17:00 +24°C° 0.3 mm 6 m/S 740 mmHg 62%
    18:00 +23°C° 0 mm 5 m/S 740 mmHg 68%
    19:00 +21°C° 0 mm 4 m/S 740 mmHg 75%
    20:00 +19°C° 0 mm 3 m/S 740 mmHg 81%
    21:00 +19°C° 0 mm 3 m/S 740 mmHg 84%
    22:00 +18°C° 0 mm 4 m/S 740 mmHg 87%
    23:00 +18°C° 0 mm 4 m/S 740 mmHg 90%
    Mehr zeigen